This is the latest recevied weather packets stored in our database for station/object DK9XR-14. If no packets are shown the sender has not sent any weather packets the latest 1 day(s).
| Time | Temp. | Humidity | Pressure | Rain* | Wind** | Luminosity | Snow |
|---|---|---|---|---|---|---|---|
| 1778026100 | 9.44° C | 90% | 1010 hPa | 0 mm | 0.45 m/s, 243° | - | - |
| 1778025801 | 9.44° C | 89% | 1010.1 hPa | 0 mm | 0.45 m/s, 240° | - | - |
| 1778025499 | 10° C | 89% | 1010 hPa | 0 mm | 0.89 m/s, 252° | - | - |
| 1778025198 | 10° C | 89% | 1010.1 hPa | 0 mm | 0.45 m/s, 241° | - | - |
| 1778024894 | 10° C | 88% | 1010.1 hPa | 0 mm | 0 m/s | - | - |
| 1778024593 | 10° C | 89% | 1010.2 hPa | 0 mm | 0.45 m/s, 279° | - | - |
| 1778024291 | 10° C | 89% | 1010.2 hPa | 0 mm | 0.45 m/s, 250° | - | - |
| 1778023988 | 10° C | 89% | 1010.3 hPa | 0 mm | 0.45 m/s, 248° | - | - |
| 1778023684 | 10° C | 88% | 1010.3 hPa | 0 mm | 0 m/s | - | - |
| 1778023384 | 10° C | 88% | 1010.2 hPa | 0 mm | 0 m/s | - | - |
| 1778023082 | 10° C | 88% | 1010.2 hPa | 0 mm | 0 m/s | - | - |
| 1778022784 | 10.56° C | 87% | 1010.3 hPa | 0 mm | 0.45 m/s, 248° | - | - |
| 1778022484 | 10.56° C | 87% | 1010.4 hPa | 0 mm | 0.45 m/s, 258° | - | - |
| 1778022183 | 10.56° C | 87% | 1010.4 hPa | 0 mm | 0 m/s | - | - |
| 1778021884 | 10.56° C | 86% | 1010.6 hPa | 0 mm | 0.45 m/s, 252° | - | - |
| 1778021581 | 11.11° C | 86% | 1010.6 hPa | 0 mm | 0 m/s | - | - |
| 1778021281 | 11.11° C | 86% | 1010.6 hPa | 0 mm | 0 m/s | - | - |
| 1778020981 | 11.11° C | 85% | 1010.6 hPa | 0 mm | 0.45 m/s, 244° | - | - |
| 1778020682 | 11.11° C | 85% | 1010.4 hPa | 0 mm | 0 m/s | - | - |
| 1778020382 | 11.67° C | 85% | 1010.4 hPa | 0 mm | 0.45 m/s, 262° | - | - |
| 1778020082 | 11.67° C | 84% | 1010.4 hPa | 0 mm | 0.89 m/s, 231° | - | - |
| 1778019783 | 11.67° C | 84% | 1010.4 hPa | 0 mm | 0.89 m/s, 271° | - | - |
| 1778019492 | 11.67° C | 84% | 1010.4 hPa | 0 mm | 0 m/s | - | - |
| 1778019192 | 11.67° C | 84% | 1010.4 hPa | 0 mm | 0.45 m/s, 274° | - | - |
| 1778018894 | 11.67° C | 83% | 1010.4 hPa | 0 mm | 0.45 m/s, 281° | - | - |
* Rain latest hour (hover to see other rain measurements)
** Current wind speed in m/s (hover to see current wind gust speed)